TAM9520 SBCG-SBCY

Flight info

Callsign TAM9520
Flight time 0h 49m
Altitude 37000
Route KOXAL UZ63 TOSAR
Aircraft A320/M-SDE3FGHIRWY/LB1

Departure

Time 2026-04-23 19:19
Airport Campo Grande Airport (SBCG)

Arrival

Time 2026-04-23 20:09
Airport Várzea Grande–Marechal Rondon International Airport (SBCY)
Time Latitude Longitude Altitude Speed Heading
2026-04-23 19:02 -20.45791 -54.66856 1836 ft 0 kts 353°
2026-04-23 19:07 -20.45795 -54.66856 1824 ft 3 kts 353°
2026-04-23 19:07 -20.45814 -54.66853 1851 ft 3 kts 353°
2026-04-23 19:08 -20.45832 -54.66849 1852 ft 3 kts 322°
2026-04-23 19:08 -20.45841 -54.66834 1839 ft 0 kts 263°
2026-04-23 19:10 -20.45841 -54.66837 1839 ft 3 kts 263°
2026-04-23 19:10 -20.45847 -54.66917 1839 ft 14 kts 264°
2026-04-23 19:10 -20.45857 -54.67016 1839 ft 13 kts 264°
2026-04-23 19:10 -20.45865 -54.67102 1839 ft 11 kts 264°
2026-04-23 19:11 -20.45930 -54.67140 1839 ft 17 kts 176°
2026-04-23 19:11 -20.46074 -54.67123 1839 ft 22 kts 173°
2026-04-23 19:11 -20.46232 -54.67104 1839 ft 24 kts 173°
2026-04-23 19:11 -20.46401 -54.67097 1839 ft 25 kts 194°
2026-04-23 19:12 -20.46497 -54.67169 1839 ft 26 kts 221°
2026-04-23 19:12 -20.46678 -54.67344 1839 ft 27 kts 222°
2026-04-23 19:12 -20.46823 -54.67484 1839 ft 29 kts 222°
2026-04-23 19:12 -20.46975 -54.67630 1841 ft 30 kts 222°
2026-04-23 19:13 -20.47132 -54.67783 1839 ft 31 kts 222°
2026-04-23 19:13 -20.47296 -54.67941 1839 ft 32 kts 222°
2026-04-23 19:13 -20.47463 -54.68104 1839 ft 33 kts 222°
2026-04-23 19:13 -20.47582 -54.68219 1839 ft 15 kts 223°
2026-04-23 19:14 -20.47655 -54.68289 1839 ft 9 kts 221°
2026-04-23 19:14 -20.47675 -54.68309 1839 ft 0 kts 223°
2026-04-23 19:15 -20.47729 -54.68350 1839 ft 16 kts 192°
2026-04-23 19:15 -20.47796 -54.68299 1839 ft 0 kts 131°
2026-04-23 19:17 -20.47861 -54.68219 1840 ft 1 kts 80°
2026-04-23 19:17 -20.47857 -54.68217 1840 ft 0 kts 47°
2026-04-23 19:17 -20.47844 -54.68211 1840 ft 3 kts 32°
2026-04-23 19:17 -20.47840 -54.68206 1840 ft 0 kts 41°
2026-04-23 19:18 -20.47799 -54.68167 1840 ft 37 kts 42°
2026-04-23 19:18 -20.47415 -54.67796 1839 ft 108 kts 42°
2026-04-23 19:18 -20.46713 -54.67119 1843 ft 162 kts 43°
2026-04-23 19:19 -20.44843 -54.65288 2743 ft 196 kts 45°
2026-04-23 19:19 -20.43781 -54.64252 3097 ft 218 kts 43°
2026-04-23 19:20 -20.41284 -54.61881 3997 ft 262 kts 43°
2026-04-23 19:20 -20.39896 -54.60584 4844 ft 268 kts 39°
2026-04-23 19:20 -20.38183 -54.59780 5616 ft 277 kts
2026-04-23 19:20 -20.36289 -54.60123 6477 ft 284 kts 335°
2026-04-23 19:21 -20.34818 -54.61501 7068 ft 288 kts 300°
2026-04-23 19:21 -20.34434 -54.65732 8636 ft 298 kts 269°
2026-04-23 19:21 -20.33967 -54.67877 9403 ft 303 kts 297°
2026-04-23 19:22 -20.32750 -54.69720 10180 ft 308 kts 311°
2026-04-23 19:22 -20.31197 -54.71408 10443 ft 331 kts 317°
2026-04-23 19:22 -20.27707 -54.74805 11659 ft 345 kts 316°
2026-04-23 19:23 -20.26098 -54.76731 12374 ft 350 kts 310°
2026-04-23 19:23 -20.24569 -54.78760 13101 ft 353 kts 308°
2026-04-23 19:23 -20.23079 -54.80854 13804 ft 357 kts 307°
2026-04-23 19:24 -20.19910 -54.84968 15043 ft 362 kts 320°
2026-04-23 19:24 -20.17854 -54.86517 15666 ft 363 kts 333°
2026-04-23 19:24 -20.13095 -54.88323 16919 ft 366 kts 344°
2026-04-23 19:25 -20.08188 -54.89898 18157 ft 371 kts 343°
2026-04-23 19:25 -20.03217 -54.91500 19157 ft 377 kts 343°
2026-04-23 19:26 -19.98167 -54.93136 20147 ft 382 kts 343°
2026-04-23 19:26 -19.95612 -54.93966 20641 ft 385 kts 343°
2026-04-23 19:27 -19.90441 -54.95647 21398 ft 397 kts 343°
2026-04-23 19:27 -19.82113 -54.97416 22445 ft 415 kts 355°
2026-04-23 19:28 -19.76323 -54.97969 23282 ft 421 kts 355°
2026-04-23 19:28 -19.70452 -54.98529 24011 ft 426 kts 355°
2026-04-23 19:29 -19.67498 -54.98808 24368 ft 427 kts 355°
2026-04-23 19:29 -19.61554 -54.99360 25084 ft 430 kts 354°
2026-04-23 19:30 -19.56590 -54.99823 25656 ft 432 kts 354°
2026-04-23 19:30 -19.46537 -55.00780 26758 ft 437 kts 354°
2026-04-23 19:31 -19.43540 -55.01062 27068 ft 438 kts 354°
2026-04-23 19:31 -19.40499 -55.01347 27376 ft 440 kts 354°
2026-04-23 19:31 -19.37441 -55.01635 27682 ft 442 kts 354°
2026-04-23 19:31 -19.34380 -55.01947 27987 ft 443 kts 351°
2026-04-23 19:32 -19.31369 -55.02645 28281 ft 444 kts 343°
2026-04-23 19:32 -19.28395 -55.03547 28572 ft 445 kts 343°
2026-04-23 19:32 -19.25412 -55.04451 28859 ft 447 kts 344°
2026-04-23 19:32 -19.22420 -55.05356 29138 ft 448 kts 344°
2026-04-23 19:33 -19.19419 -55.06263 29399 ft 449 kts 344°
2026-04-23 19:33 -19.16406 -55.07173 29663 ft 451 kts 344°
2026-04-23 19:33 -19.10365 -55.09000 30147 ft 453 kts 343°
2026-04-23 19:34 -19.07329 -55.09920 30347 ft 454 kts 343°
2026-04-23 19:34 -19.04285 -55.10838 30526 ft 456 kts 343°
2026-04-23 19:34 -18.98177 -55.12679 30977 ft 456 kts 344°
2026-04-23 19:35 -18.95128 -55.13596 31220 ft 456 kts 343°
2026-04-23 19:35 -18.92077 -55.14514 31468 ft 456 kts 343°
2026-04-23 19:35 -18.89027 -55.15428 31716 ft 456 kts 343°
2026-04-23 19:35 -18.85979 -55.16342 31966 ft 456 kts 343°
2026-04-23 19:36 -18.82929 -55.17260 32218 ft 456 kts 343°
2026-04-23 19:36 -18.79881 -55.18181 32477 ft 455 kts 343°
2026-04-23 19:36 -18.76835 -55.19098 32740 ft 455 kts 343°
2026-04-23 19:36 -18.73785 -55.20014 32997 ft 455 kts 343°
2026-04-23 19:37 -18.70743 -55.20928 33255 ft 455 kts 343°
2026-04-23 19:37 -18.68722 -55.21537 33424 ft 456 kts 343°
2026-04-23 19:37 -18.65672 -55.22454 33691 ft 456 kts 343°
2026-04-23 19:37 -18.62625 -55.23365 33955 ft 456 kts 343°
2026-04-23 19:38 -18.59577 -55.24275 34191 ft 456 kts 343°
2026-04-23 19:38 -18.56526 -55.25191 34434 ft 455 kts 343°
2026-04-23 19:38 -18.53483 -55.26105 34672 ft 455 kts 343°
2026-04-23 19:38 -18.50436 -55.27015 34906 ft 455 kts 343°
2026-04-23 19:39 -18.47396 -55.27923 35144 ft 454 kts 343°
2026-04-23 19:39 -18.44356 -55.28834 35377 ft 454 kts 343°
2026-04-23 19:39 -18.41323 -55.29748 35600 ft 453 kts 343°
2026-04-23 19:39 -18.38292 -55.30655 35813 ft 453 kts 343°
2026-04-23 19:40 -18.35249 -55.31563 35913 ft 454 kts 343°
2026-04-23 19:40 -18.29182 -55.33369 35931 ft 453 kts 343°
2026-04-23 19:41 -18.23117 -55.35175 35931 ft 453 kts 343°
2026-04-23 19:41 -18.17058 -55.36986 35927 ft 453 kts 343°
2026-04-23 19:42 -18.10997 -55.38797 35928 ft 453 kts 343°
2026-04-23 19:42 -18.04977 -55.40585 35926 ft 453 kts 343°
2026-04-23 19:43 -17.98918 -55.42387 35922 ft 453 kts 343°
2026-04-23 19:43 -17.92857 -55.44192 35921 ft 453 kts 343°
2026-04-23 19:44 -17.86797 -55.45995 35919 ft 453 kts 343°
2026-04-23 19:44 -17.80735 -55.47796 35916 ft 453 kts 343°
2026-04-23 19:45 -17.74670 -55.49598 35913 ft 453 kts 343°
2026-04-23 19:45 -17.68604 -55.51394 35914 ft 453 kts 343°
2026-04-23 19:46 -17.62531 -55.53190 35908 ft 453 kts 344°
2026-04-23 19:46 -17.56460 -55.54999 35909 ft 454 kts 344°
2026-04-23 19:47 -17.50378 -55.56778 35916 ft 454 kts 344°
2026-04-23 19:47 -17.47338 -55.57673 35484 ft 455 kts 344°
2026-04-23 19:47 -17.44257 -55.58588 34339 ft 464 kts 344°
2026-04-23 19:47 -17.41135 -55.59521 33268 ft 468 kts 344°
2026-04-23 19:48 -17.38005 -55.60461 32245 ft 468 kts 344°
2026-04-23 19:48 -17.34869 -55.61403 31177 ft 470 kts 345°
2026-04-23 19:48 -17.31728 -55.62338 30224 ft 469 kts 346°
2026-04-23 19:48 -17.28618 -55.63258 29562 ft 460 kts 346°
2026-04-23 19:49 -17.25565 -55.64161 28894 ft 453 kts 346°
2026-04-23 19:49 -17.22549 -55.65052 28234 ft 446 kts 346°
2026-04-23 19:49 -17.19587 -55.65928 27596 ft 441 kts 346°
2026-04-23 19:49 -17.16654 -55.66798 26964 ft 436 kts 345°
2026-04-23 19:50 -17.13749 -55.67660 26372 ft 431 kts 345°
2026-04-23 19:50 -17.10904 -55.68504 25723 ft 429 kts 345°
2026-04-23 19:50 -17.08006 -55.69362 25108 ft 426 kts 345°
2026-04-23 19:50 -17.05166 -55.70201 24503 ft 423 kts 345°
2026-04-23 19:51 -17.02379 -55.71027 23916 ft 421 kts 345°
2026-04-23 19:51 -16.99571 -55.71858 23322 ft 419 kts 345°
2026-04-23 19:51 -16.96781 -55.72685 22737 ft 415 kts 345°
2026-04-23 19:51 -16.94018 -55.73504 22208 ft 411 kts 345°
2026-04-23 19:52 -16.91283 -55.74312 21712 ft 406 kts 345°
2026-04-23 19:52 -16.88575 -55.75111 21226 ft 403 kts 345°
2026-04-23 19:52 -16.85886 -55.75907 20745 ft 400 kts 345°
2026-04-23 19:52 -16.83224 -55.76695 20254 ft 397 kts 345°
2026-04-23 19:53 -16.80578 -55.77478 19760 ft 394 kts 345°
2026-04-23 19:53 -16.77939 -55.78257 19258 ft 393 kts 345°
2026-04-23 19:53 -16.75317 -55.79031 18749 ft 391 kts 345°
2026-04-23 19:53 -16.72698 -55.79801 18226 ft 391 kts 345°
2026-04-23 19:54 -16.70082 -55.80570 17644 ft 390 kts 345°
2026-04-23 19:54 -16.67480 -55.81337 17116 ft 388 kts 345°
2026-04-23 19:54 -16.64890 -55.82102 16586 ft 386 kts 346°
2026-04-23 19:54 -16.62315 -55.82863 16059 ft 384 kts 346°
2026-04-23 19:55 -16.59753 -55.83620 15530 ft 382 kts 346°
2026-04-23 19:55 -16.57191 -55.84378 15009 ft 381 kts 346°
2026-04-23 19:55 -16.54650 -55.85127 14483 ft 379 kts 346°
2026-04-23 19:55 -16.52112 -55.85866 13942 ft 378 kts 347°
2026-04-23 19:56 -16.49562 -55.86510 13385 ft 376 kts 349°
2026-04-23 19:56 -16.47013 -55.87064 12838 ft 373 kts 351°
2026-04-23 19:56 -16.44478 -55.87569 12303 ft 369 kts 351°
2026-04-23 19:56 -16.41966 -55.88056 11759 ft 366 kts 351°
2026-04-23 19:57 -16.39472 -55.88548 11206 ft 363 kts 350°
2026-04-23 19:57 -16.37003 -55.89051 10667 ft 361 kts 350°
2026-04-23 19:57 -16.34560 -55.89559 10352 ft 351 kts 350°
2026-04-23 19:57 -16.32220 -55.90056 10225 ft 336 kts 349°
2026-04-23 19:58 -16.29972 -55.90537 10115 ft 323 kts 350°
2026-04-23 19:58 -16.27818 -55.90997 9999 ft 310 kts 350°
2026-04-23 19:58 -16.25735 -55.91439 9799 ft 302 kts 350°
2026-04-23 19:58 -16.23680 -55.91874 9384 ft 301 kts 350°
2026-04-23 19:59 -16.21636 -55.92306 9003 ft 299 kts 350°
2026-04-23 19:59 -16.19611 -55.92736 8669 ft 295 kts 350°
2026-04-23 19:59 -16.17610 -55.93161 8391 ft 291 kts 350°
2026-04-23 19:59 -16.15656 -55.93575 8184 ft 290 kts 350°
2026-04-23 20:00 -16.13684 -55.93991 7940 ft 289 kts 350°
2026-04-23 20:00 -16.11720 -55.94405 7676 ft 287 kts 350°
2026-04-23 20:00 -16.09762 -55.94817 7409 ft 286 kts 350°
2026-04-23 20:00 -16.07817 -55.95225 7143 ft 285 kts 350°
2026-04-23 20:01 -16.05882 -55.95631 6881 ft 283 kts 350°
2026-04-23 20:01 -16.03952 -55.96039 6625 ft 282 kts 350°
2026-04-23 20:01 -16.02029 -55.96447 6355 ft 281 kts 350°
2026-04-23 20:01 -16.00117 -55.96853 6078 ft 280 kts 350°
2026-04-23 20:02 -15.98218 -55.97255 5814 ft 278 kts 350°
2026-04-23 20:02 -15.96348 -55.97649 5563 ft 270 kts 350°
2026-04-23 20:02 -15.94538 -55.98028 5313 ft 262 kts 350°
2026-04-23 20:02 -15.92770 -55.98400 5072 ft 255 kts 350°
2026-04-23 20:03 -15.91061 -55.98760 4833 ft 248 kts 350°
2026-04-23 20:03 -15.89394 -55.99112 4608 ft 241 kts 349°
2026-04-23 20:03 -15.87823 -55.99663 4380 ft 237 kts 334°
2026-04-23 20:03 -15.86374 -56.00437 4161 ft 231 kts 333°
2026-04-23 20:04 -15.84962 -56.01199 3946 ft 227 kts 333°
2026-04-23 20:04 -15.83576 -56.01939 3737 ft 222 kts 333°
2026-04-23 20:04 -15.82216 -56.02663 3534 ft 217 kts 333°
2026-04-23 20:04 -15.80893 -56.03368 3368 ft 209 kts 333°
2026-04-23 20:05 -15.79628 -56.04041 3146 ft 201 kts 333°
2026-04-23 20:05 -15.78417 -56.04686 3013 ft 188 kts 332°
2026-04-23 20:05 -15.77281 -56.05291 2871 ft 180 kts 332°
2026-04-23 20:05 -15.76181 -56.05877 2672 ft 176 kts 333°
2026-04-23 20:06 -15.75100 -56.06452 2461 ft 173 kts 333°
2026-04-23 20:06 -15.74039 -56.07017 2246 ft 170 kts 332°
2026-04-23 20:06 -15.73019 -56.07559 2055 ft 158 kts 332°
2026-04-23 20:06 -15.72056 -56.08071 1842 ft 154 kts 332°
2026-04-23 20:07 -15.71114 -56.08573 1657 ft 150 kts 332°
2026-04-23 20:07 -15.70189 -56.09064 1465 ft 149 kts 332°
2026-04-23 20:07 -15.69273 -56.09552 1288 ft 147 kts 333°
2026-04-23 20:07 -15.68366 -56.10034 1100 ft 146 kts 334°
2026-04-23 20:08 -15.67466 -56.10514 888 ft 144 kts 334°
2026-04-23 20:08 -15.66577 -56.10990 717 ft 143 kts 335°
2026-04-23 20:08 -15.65703 -56.11453 617 ft 133 kts 335°
2026-04-23 20:08 -15.65051 -56.11798 621 ft 66 kts 333°
2026-04-23 20:09 -15.64735 -56.11965 622 ft 46 kts 333°
2026-04-23 20:09 -15.64484 -56.12101 623 ft 26 kts 330°
2026-04-23 20:09 -15.64397 -56.12174 626 ft 9 kts 16°
2026-04-23 20:09 -15.64407 -56.12138 626 ft 0 kts 150°
2026-04-23 20:10 -15.64413 -56.12135 630 ft 6 kts 152°
2026-04-23 20:10 -15.64519 -56.12081 623 ft 18 kts 155°
2026-04-23 20:10 -15.64651 -56.12011 619 ft 25 kts 152°
2026-04-23 20:10 -15.64819 -56.11922 611 ft 29 kts 152°
2026-04-23 20:11 -15.65002 -56.11823 607 ft 26 kts 154°
2026-04-23 20:11 -15.65079 -56.11870 615 ft 15 kts 243°
2026-04-23 20:11 -15.65049 -56.11930 610 ft 10 kts 331°
2026-04-23 20:11 -15.64992 -56.11960 610 ft 9 kts 333°
2026-04-23 20:12 -15.64978 -56.11968 610 ft 2 kts 332°
2026-04-23 20:12 -15.64970 -56.11995 609 ft 8 kts 256°
2026-04-23 20:12 -15.64982 -56.12020 609 ft 2 kts 242°
2026-04-23 20:12 -15.64983 -56.12022 608 ft 0 kts 242°